Location: *
(55.6049°S, 142.1985°W)
Time: 02:28:26
(UTC+00:00)

MOS 1-B - Pass Details

Date: 12 May 2021
Orbit: 904 x 914 km, 99.4° (Epoch: 23 June)

Event Time Altitude Azimuth Distance (km) Brightness Sun altitude
Rises 14:22:59 0° 24° (NNE) 3,535 7.7 -23.7°
Reaches altitude 10° 14:25:23 10° 24° (NNE) 2,601 7.0 -23.4°
Maximum altitude 14:31:12 82° 110° (ESE) 934 4.4 -22.6°
Drops below altitude 10° 14:37:05 10° 197° (SSW) 2,633 6.6 -21.8°
Sets 14:39:31 0° 197° (SSW) 3,581 7.3 -21.4°
